RH
41 41 40 39 38 36 34 34 33 34 34 32 31 29 28 27 26 26 25 25 24 24 24 24 25 26 27 27 26 24 22 19 18 17 17 17 17 16 16 16 16 16 15 15 15 14 14 13 13 13 14 15 16 17 19 22 25 28 33 37 42 48 53 58 55 46 42 48 51 54 60 65 65 65 64 62 61 61 59 57 57 56 53 49 47
35 33 32 30 29 28 27 26 26 27 28 29 30 30 31 31 31 32 31 30 29 28 28 27 27 26 26 26 24 22 20 18 17 17 16 16 16 16 16 15 15 15 15 15 15 15 14 14 14 14 14 14 13 13 14 15 17 19 22 25 30 35 41 45 47 43 37 40 45 45 49 56 59 62 66 67 65 65 62 60 60 59 58 55 52
27 26 25 24 23 23 23 22 23 23 23 24 25 27 28 28 29 31 31 32 31 29 28 26 24 23 21 20 18 17 17 17 16 16 15 15 14 14 14 13 13 14 13 14 14 14 15 14 15 15 15 15 14 14 14 14 14 15 16 17 19 23 28 31 35 37 33 35 40 40 40 45 49 54 61 65 67 68 66 63 62 61 60 59 57
21 21 21 22 22 22 23 24 25 26 26 26 26 26 27 27 27 27 27 27 27 26 24 22 21 20 19 18 17 17 17 16 15 15 14 14 13 12 12 11 11 11 11 12 12 12 13 13 14 14 15 15 15 15 15 14 14 14 14 15 15 15 18 21 24 27 29 30 34 38 39 38 39 44 52 58 62 66 68 67 66 64 62 62 61
21 22 23 25 26 28 29 31 31 32 32 31 31 30 29 29 28 28 27 26 25 24 23 22 20 19 18 17 17 16 15 14 14 13 13 13 13 13 13 12 12 12 11 11 11 11 12 11 11 12 13 14 14 14 15 15 14 15 14 14 14 15 15 16 17 19 22 23 26 32 36 36 35 37 42 49 54 58 62 65 67 66 65 64 62
24 26 29 30 31 33 34 35 35 35 35 34 33 32 31 30 30 29 28 27 26 24 22 20 19 17 17 16 15 15 14 14 14 13 14 15 15 15 15 14 14 14 14 13 13 14 14 13 13 13 13 13 14 14 14 15 15 15 15 14 14 14 14 15 15 16 17 18 19 22 27 31 33 32 34 41 47 52 55 58 61 64 64 64 63
29 32 33 34 35 35 36 36 37 37 37 36 36 35 33 32 32 31 30 28 25 22 20 18 17 17 16 16 16 15 15 16 16 16 17 18 18 17 17 16 16 16 15 15 15 16 16 16 16 16 16 16 15 15 15 16 16 16 16 16 15 16 15 14 14 15 15 15 15 17 19 22 26 28 29 32 37 43 49 52 56 58 59 60 61
33 35 36 37 37 37 38 39 39 39 39 39 39 38 36 34 32 30 29 26 23 20 18 17 17 17 17 17 17 17 17 18 19 19 20 20 20 19 18 18 17 16 16 15 15 15 15 16 16 16 17 17 17 17 17 18 18 18 17 17 18 20 20 18 16 15 15 15 15 14 16 18 20 22 24 25 26 30 37 47 53 53 56 57 57
37 38 39 39 40 40 41 43 43 43 43 42 41 38 35 31 29 28 26 24 21 19 18 18 18 18 18 18 19 20 20 21 21 21 21 20 19 18 18 17 16 16 15 15 14 14 14 15 16 16 17 18 18 18 18 19 21 22 20 20 23 25 26 25 23 20 18 17 15 14 15 16 17 18 20 21 21 20 25 37 43 46 51 55 56
40 41 41 42 43 44 46 46 45 43 40 38 36 33 30 28 28 28 26 23 21 20 20 20 20 20 21 22 23 23 23 22 22 21 21 20 20 19 17 17 16 15 14 13 13 13 14 15 15 16 18 19 20 20 20 19 20 22 23 25 29 32 32 31 30 29 27 23 18 16 16 16 15 16 18 17 18 18 19 24 29 36 46 51 50
41 42 42 43 45 45 44 42 40 37 35 33 32 30 30 31 31 29 26 24 23 23 23 23 24 24 25 24 24 24 23 22 22 22 22 22 21 20 18 16 15 15 15 16 16 16 16 17 17 18 18 19 20 21 22 21 20 21 22 23 26 31 34 34 32 32 33 32 27 22 20 17 13 13 16 16 16 17 17 18 22 28 39 45 44
42 42 42 42 41 40 38 36 35 34 33 33 33 33 34 33 31 28 25 24 24 24 25 25 25 25 24 24 23 22 22 23 23 23 22 21 20 19 18 17 17 18 19 20 20 19 19 19 18 19 19 21 24 26 26 25 24 24 22 21 21 24 29 34 35 34 33 34 33 30 27 22 15 12 15 16 17 17 17 18 19 22 31 39 41
39 38 37 36 35 35 35 35 35 35 35 35 35 36 34 31 28 26 24 25 25 25 25 24 23 23 23 22 22 22 23 23 23 23 21 20 20 20 20 21 21 21 21 21 20 19 19 19 19 20 22 24 27 29 29 27 25 25 25 24 23 21 22 27 32 34 35 34 34 33 31 29 25 18 15 18 21 21 20 19 18 20 27 32 33
35 35 35 35 36 36 37 37 37 37 37 38 37 35 32 28 27 27 26 26 25 23 23 22 22 22 22 23 24 24 24 24 23 21 20 20 22 23 24 24 22 21 21 21 21 21 22 24 25 26 28 29 29 29 30 31 32 32 32 31 30 28 26 26 26 28 32 34 34 33 31 31 32 26 21 25 28 26 24 22 20 20 23 24 25
35 37 37 38 39 39 39 39 39 40 40 39 35 32 29 28 28 28 27 25 23 22 22 22 23 24 24 25 25 25 24 23 21 20 21 23 25 25 25 24 23 22 22 22 23 26 30 34 36 36 36 37 37 38 40 40 39 38 36 35 34 34 32 31 29 29 32 35 37 36 32 29 30 28 25 28 32 30 27 27 25 24 24 25 28
37 38 39 40 42 43 43 42 41 41 39 35 32 30 29 30 30 28 26 24 23 23 24 25 26 26 27 27 26 23 22 21 21 22 25 26 26 26 25 24 23 21 21 24 29 34 39 43 45 46 46 46 45 45 48 48 45 43 43 41 40 39 36 35 36 37 37 37 36 36 35 32 30 29 27 29 32 33 32 31 31 30 30 30 31
38 39 41 43 44 44 44 43 41 39 35 32 31 31 32 31 30 28 26 24 24 26 27 28 28 28 28 27 25 22 20 21 24 26 26 27 26 25 24 23 22 22 25 33 39 44 48 52 52 51 50 47 45 45 47 47 45 42 42 41 41 40 39 40 43 44 43 41 37 35 34 34 34 33 31 31 32 32 33 33 33 32 32 31 30
40 42 43 44 44 44 43 42 39 35 33 32 32 33 33 32 30 28 26 26 27 28 28 29 29 29 27 25 23 21 21 24 27 26 26 27 27 26 25 24 25 29 36 45 50 52 53 54 54 52 49 46 44 44 44 43 41 40 40 39 38 38 38 39 42 44 46 47 45 42 38 36 36 36 35 34 33 33 33 33 31 32 33 32 30
41 42 43 44 44 44 43 41 37 34 33 33 34 34 34 32 30 28 28 28 29 29 30 29 28 27 26 24 23 24 25 26 27 26 27 29 30 29 29 29 33 41 49 53 56 57 56 55 54 51 46 43 44 44 42 41 41 40 40 39 39 38 37 37 36 37 40 44 46 48 46 41 37 37 36 36 35 34 34 33 32 32 33 33 31
41 43 44 45 46 45 42 40 37 34 34 33 35 35 34 32 31 31 31 30 30 30 30 28 27 26 25 24 25 28 28 26 27 29 31 31 30 29 30 34 41 51 57 59 60 62 62 57 51 44 39 39 42 44 44 43 43 43 42 41 40 39 38 37 35 35 36 37 40 45 49 48 44 39 36 36 37 36 35 34 33 32 33 33 32
42 44 45 46 46 44 41 38 37 36 36 36 36 36 34 34 34 33 33 32 32 32 30 29 27 25 24 25 28 30 29 29 31 33 31 29 28 28 31 38 46 54 60 63 64 65 63 57 50 43 40 40 44 47 47 46 45 45 44 43 42 40 39 38 36 36 36 33 33 37 43 49 51 47 43 40 38 38 37 36 35 33 32 32 33
43 45 45 46 45 43 40 39 39 38 39 38 37 36 36 36 37 37 36 36 35 33 31 29 27 23 24 27 30 30 32 33 34 32 29 28 29 31 35 42 48 51 56 61 64 65 64 59 52 47 45 45 47 49 48 46 46 46 45 43 40 38 39 39 39 39 39 36 34 34 36 42 48 52 52 48 42 39 39 38 37 36 34 32 33
45 46 47 47 44 42 41 41 41 41 41 39 37 36 37 39 40 41 40 39 37 34 31 28 25 23 26 29 31 33 35 36 33 30 28 29 31 34 40 47 49 49 50 54 58 61 62 59 54 51 50 50 51 50 48 46 46 45 42 40 38 38 41 43 44 45 45 43 40 36 33 36 42 48 52 53 49 45 43 42 39 38 38 36 34
47 48 49 47 44 43 43 42 42 43 41 39 37 38 40 42 43 43 43 41 37 33 29 26 24 26 29 31 33 36 37 34 31 31 31 32 34 38 44 49 50 50 49 49 51 54 55 55 54 54 54 51 49 47 44 43 43 41 39 39 39 41 44 45 45 45 46 46 44 40 34 35 40 46 50 53 55 53 51 48 45 41 40 40 38
50 50 49 47 45 44 44 44 44 43 39 37 38 41 44 45 45 45 43 40 36 31 27 25 27 30 33 33 35 37 36 33 32 33 35 36 38 41 45 48 50 51 51 50 51 54 53 52 53 54 52 49 46 43 42 41 42 42 43 45 46 46 47 47 48 48 48 47 48 46 40 37 40 46 49 53 57 59 58 57 53 47 43 42 41
53 53 50 48 47 47 46 45 44 41 38 37 41 45 48 48 46 45 42 38 34 29 26 26 30 34 36 38 39 38 36 35 35 36 38 39 40 41 44 47 49 51 51 51 54 55 54 53 54 54 53 51 48 46 44 44 46 47 47 47 48 48 49 52 54 54 52 51 54 52 44 39 39 43 48 53 56 59 63 65 64 58 50 45 43
56 54 51 50 50 49 47 45 43 39 38 41 46 49 50 49 47 44 41 37 33 29 27 28 33 38 41 43 42 39 38 38 38 38 40 40 40 41 42 44 45 48 49 51 52 52 53 55 57 58 57 54 51 49 49 51 52 51 48 47 49 49 51 54 56 57 55 55 59 58 53 48 45 44 49 55 56 58 66 72 73 69 62 53 48
57 56 54 53 52 49 46 44 41 38 39 44 49 51 50 49 46 43 41 37 33 29 28 30 36 44 48 47 44 43 42 41 40 41 41 41 40 41 42 44 46 47 48 50 50 50 51 53 56 58 58 56 54 55 58 58 56 52 50 52 54 54 55 56 56 55 56 58 61 62 60 57 52 48 52 58 60 61 69 76 77 76 74 68 59
59 57 56 53 51 48 46 44 40 39 41 46 50 50 49 48 45 42 40 37 34 31 30 33 43 53 53 49 47 47 45 42 42 42 43 42 42 42 44 46 48 50 51 52 53 53 54 56 58 59 60 58 56 58 59 58 54 53 54 58 60 59 59 59 57 56 58 60 62 65 67 65 59 54 56 61 62 65 73 79 80 80 83 82 75
60 58 56 54 51 49 47 44 41 41 43 46 48 47 47 48 46 41 38 36 35 35 35 39 50 57 54 49 48 48 46 44 44 44 44 44 44 45 46 48 50 52 53 54 56 57 60 62 63 64 63 60 57 57 58 57 56 57 60 62 62 63 62 61 60 61 62 63 64 67 72 72 67 61 62 64 66 72 79 82 81 83 86 89 87
60 58 56 53 52 50 47 43 41 42 45 47 46 44 44 45 45 43 40 36 36 37 38 44 53 57 53 49 48 46 44 44 45 46 45 45 45 46 48 50 52 54 54 54 56 59 62 63 65 66 64 61 61 62 62 62 63 65 65 63 63 64 63 61 64 68 69 69 70 72 75 77 73 69 69 72 75 80 83 83 83 86 88 89 90
59 57 56 54 53 50 46 41 41 44 46 46 45 43 42 41 41 43 42 40 38 38 40 47 55 57 55 51 49 46 44 45 46 46 46 45 46 48 49 51 52 53 53 54 56 59 62 64 66 67 66 67 70 71 71 71 72 72 69 65 62 61 62 64 68 73 75 75 77 78 78 79 76 73 76 79 81 84 86 86 86 87 88 88 89
57 56 56 55 53 48 43 41 43 46 48 46 45 45 44 42 40 40 39 38 40 42 46 51 55 57 57 54 49 47 46 45 46 47 47 46 47 47 48 50 51 53 54 56 57 60 63 66 68 71 73 76 79 79 78 78 76 73 70 68 63 61 64 69 73 77 80 81 83 84 83 81 77 77 81 84 85 86 87 86 86 87 88 88 88
56 56 57 56 52 46 43 44 47 49 50 50 49 50 49 47 45 41 37 34 35 39 48 56 59 61 59 54 49 48 47 45 47 48 47 46 46 46 46 48 52 55 56 57 60 63 66 68 71 75 81 85 87 85 82 79 75 72 70 68 64 63 68 74 76 79 83 86 88 90 90 84 79 79 83 85 85 86 86 86 87 89 91 90 88
58 59 58 55 50 46 47 50 53 54 54 55 56 56 54 51 47 42 39 35 32 35 46 56 62 66 63 54 49 49 48 46 47 48 47 46 45 45 45 47 50 54 57 60 63 67 69 71 76 82 87 90 89 85 81 79 76 73 70 67 64 66 73 77 77 80 87 92 93 94 94 89 83 83 85 86 87 87 88 91 94 96 97 96 94
61 62 60 55 50 49 52 56 58 58 59 60 61 59 57 53 47 41 39 37 35 40 50 56 62 68 64 54 50 52 51 48 49 48 48 48 47 46 46 48 50 53 57 61 65 68 71 77 83 89 93 91 86 82 81 80 79 75 71 67 64 65 74 80 80 82 90 96 96 94 93 92 89 87 88 88 88 89 94 98 100 100 100 100 100
64 65 62 58 53 54 58 60 61 62 64 65 65 62 57 52 45 41 39 38 39 48 57 60 64 68 63 53 52 55 54 53 53 51 49 49 49 49 49 50 51 53 57 61 65 69 75 84 90 93 92 88 82 81 82 83 81 76 71 68 64 64 71 80 86 89 94 98 99 98 97 97 95 93 92 93 93 94 97 101 101 100 100 100 101
68 68 66 62 59 59 62 64 64 67 68 69 68 64 56 49 44 41 40 41 46 55 62 65 68 67 60 53 53 54 54 55 56 55 52 51 51 51 51 51 53 56 58 61 66 72 79 88 93 92 89 84 81 82 85 86 84 79 74 69 65 64 67 74 85 96 99 97 97 97 97 98 99 97 96 97 98 98 99 100 101 101 101 101 101
70 71 69 68 67 67 68 68 70 72 72 71 68 62 53 47 45 43 42 46 54 61 66 70 72 67 59 55 54 53 53 54 54 53 52 53 53 54 54 54 55 58 59 63 68 74 82 90 93 92 88 85 83 85 88 89 87 84 79 73 68 66 66 68 76 91 100 99 97 96 95 95 97 98 99 99 100 99 99 99 100 101 100 99 97
72 74 75 74 76 77 77 76 76 75 73 70 65 57 50 47 46 45 46 53 61 66 72 76 74 66 60 57 57 56 55 55 52 51 52 54 55 57 58 57 58 59 60 62 67 75 84 91 93 93 91 88 86 88 90 90 87 84 83 80 74 71 70 67 68 78 91 97 99 99 98 96 94 95 98 99 100 100 100 99 97 97 96 94 92
71 75 78 80 81 82 81 80 79 75 71 66 59 52 49 48 47 46 51 58 66 73 79 79 72 65 62 61 60 59 57 55 53 52 53 54 57 59 60 60 60 61 61 63 68 76 84 90 92 93 92 89 89 90 91 90 87 85 86 86 83 80 78 75 71 71 78 87 92 95 97 96 94 92 94 97 99 101 101 100 98 96 93 89 87
67 71 75 80 82 83 84 83 80 73 66 59 53 51 49 49 48 50 56 64 73 82 84 78 69 65 64 63 61 60 59 57 55 55 54 55 57 61 63 63 63 62 63 65 69 77 85 90 92 93 92 89 88 90 92 91 90 90 90 90 88 85 84 82 79 74 74 79 84 88 90 91 90 89 91 95 99 101 101 100 101 99 94 89 85
67 71 75 79 82 84 85 83 76 66 57 52 52 52 50 49 50 54 63 73 83 87 82 74 69 67 66 63 62 61 60 58 57 56 55 54 56 59 63 65 65 65 65 67 71 78 85 91 94 94 93 90 87 88 90 90 91 93 94 93 91 90 89 87 85 80 76 76 78 81 84 86 87 85 85 87 92 98 100 101 102 100 95 90 86
70 74 78 81 83 86 84 78 68 57 51 50 51 51 51 51 55 62 73 84 90 86 78 72 71 70 67 64 63 62 61 60 58 57 56 54 53 55 60 63 65 66 66 68 73 79 86 92 95 96 96 93 89 89 91 91 91 93 96 95 95 96 97 96 94 90 85 80 78 77 78 80 83 85 84 81 81 85 90 94 97 95 92 87 84
73 77 80 82 84 84 79 70 59 51 48 48 50 51 52 55 62 72 84 91 89 81 75 73 73 70 67 66 64 63 62 61 59 57 56 54 52 53 56 60 64 66 66 68 74 79 84 90 94 96 97 96 93 91 93 94 93 94 95 97 98 100 101 101 101 100 97 92 87 83 80 77 77 80 83 84 82 81 82 84 86 86 85 84 84
77 79 80 80 79 74 67 59 52 48 46 46 47 50 54 62 72 84 92 91 84 77 75 74 72 70 68 67 65 65 64 63 61 58 57 55 52 52 54 59 64 66 66 68 73 78 81 86 90 93 96 97 95 94 94 95 95 94 94 95 97 99 101 101 100 99 100 99 96 93 89 85 80 78 78 80 81 82 82 82 83 82 80 78 77
76 76 75 71 67 61 56 52 48 46 45 45 45 50 59 72 84 93 93 87 80 76 75 73 71 69 68 67 67 66 66 65 63 61 58 56 54 53 53 58 64 68 68 69 74 77 80 83 86 90 93 95 96 97 96 96 96 96 96 94 93 94 97 99 97 96 97 99 99 97 94 93 92 90 86 84 83 83 83 82 82 81 80 78 75
70 68 64 60 55 52 51 49 47 47 45 43 46 54 66 80 91 94 90 83 78 76 74 72 70 68 67 67 68 68 68 67 66 63 61 58 56 55 54 57 62 67 69 71 75 78 80 82 83 86 89 91 93 96 98 98 97 97 98 98 96 92 92 95 97 97 97 98 99 99 98 97 98 99 99 97 96 95 93 90 86 84 84 83 83
59 56 53 51 50 50 50 50 49 47 45 46 52 63 74 84 89 88 84 79 77 76 73 71 69 67 67 67 68 69 69 69 67 66 63 61 59 58 57 58 60 64 68 71 75 79 82 82 83 83 85 87 89 91 95 97 98 98 98 99 99 95 92 93 95 98 98 99 100 101 101 100 100 100 100 101 101 100 100 98 95 92 91 91 91
51 50 49 50 51 51 51 52 50 48 48 53 63 72 80 84 83 79 75 74 74 73 70 68 66 65 64 65 66 67 68 69 68 67 66 64 62 61 60 60 60 62 64 67 71 76 81 84 84 83 83 85 86 88 89 92 96 98 98 99 99 99 97 95 95 96 98 99 99 100 101 101 100 99 99 100 100 99 100 100 99 99 98 98 98
50 50 51 52 53 53 54 53 51 50 55 65 74 80 84 83 77 71 67 66 64 63 62 61 59 59 59 60 61 63 64 66 67 67 66 66 65 63 62 62 63 63 63 64 66 70 75 81 84 84 84 84 85 85 86 88 90 92 94 96 98 100 100 99 97 97 97 97 97 98 100 101 100 99 99 100 100 100 99 100 100 99 99 98 100